Date String (YYYY-MM-DD hh:mm:ss) UTC,Instrument flags,Ambient pressure (hPa),Sample flow (lpm),Bypass flow (lpm),Sample temperature (°C),Ambient temperature (°C),ASC tube jacket temperature (°C),LED temperature (°C),Box temperature (°C),Sample RH (%),Span deviation,Mass concentration (μg/m³),Mass concentration (μg/m³),Mass concentration (μg/m³)
DateTimeUTC,F1_M11,P_M11,Q1_M11,Q2_M11,T1_M11,T2_M11,T3_M11,T4_M11,T5_M11,U1_M11,ZSPAN_M11,X2_M11,X0_M11,X1_M11
2021-11-08 22:00:00,,0830.1,4.99,0.00,28.7,27.9,00.0,37.6,30.5,14.3,-000.1,0009.32,0017.93,0008.40
2021-11-08 22:01:00,,0830.0,5.00,0.00,28.7,27.9,00.0,37.6,30.4,14.3,0000.1,0009.31,0017.73,0008.39
2021-11-08 22:02:00,,0830.1,5.00,0.00,28.6,27.8,00.0,37.6,30.4,14.4,0000.1,0009.35,0016.83,0008.41
2021-11-08 22:03:00,,0830.1,5.01,0.00,28.6,27.8,00.0,37.6,30.4,14.4,-000.1,0009.39,0016.98,0008.44
2021-11-08 22:04:00,,0830.2,4.99,0.00,28.6,27.8,00.0,37.6,30.4,14.3,-000.5,0009.44,0017.12,0008.48
2021-11-08 22:05:00,,0830.1,5.00,0.00,28.6,27.7,00.0,37.6,30.4,14.3,-000.7,0009.49,0017.23,0008.51
2021-11-08 22:06:00,,0830.1,5.00,0.00,28.6,27.8,00.0,37.6,30.4,14.3,-000.2,0009.49,0017.49,0008.53
2021-11-08 22:07:00,,0830.1,4.99,0.00,28.6,27.8,00.0,37.6,30.4,14.3,-000.3,0009.45,0017.48,0008.53
2021-11-08 22:08:00,,0830.1,5.01,0.00,28.6,27.8,00.0,37.6,30.4,14.3,-000.5,0009.52,0017.44,0008.56
2021-11-08 22:09:00,,0830.1,4.99,0.00,28.6,27.7,00.0,37.6,30.4,14.3,0000.0,0009.59,0017.52,0008.59
2021-11-08 22:10:00,,0830.2,5.00,0.00,28.6,27.7,00.0,37.6,30.4,14.3,0000.2,0009.61,0017.07,0008.59
2021-11-08 22:11:00,,0830.2,5.00,0.00,28.6,27.8,00.0,37.6,30.3,14.3,0000.2,0009.57,0016.36,0008.60
2021-11-08 22:12:00,,0830.3,5.01,0.00,28.6,27.8,00.0,37.6,30.4,14.3,0000.4,0009.53,0016.79,0008.60
2021-11-08 22:13:00,,0830.2,4.99,0.00,28.6,27.8,00.0,37.6,30.4,14.3,0000.8,0009.47,0017.38,0008.59
2021-11-08 22:14:00,,0830.3,4.99,0.00,28.6,27.8,00.0,37.6,30.4,14.3,0001.4,0009.45,0017.50,0008.57
2021-11-08 22:15:00,,0830.3,4.98,0.00,28.6,27.8,00.0,37.6,30.4,14.3,0001.5,0009.43,0017.88,0008.55
2021-11-08 22:16:00,,0830.3,5.00,0.00,28.6,27.8,00.0,37.6,30.4,14.3,0002.1,0009.47,0018.00,0008.54
2021-11-08 22:17:00,,0830.3,5.00,0.00,28.6,27.8,00.0,37.6,30.4,14.3,0002.3,0009.50,0018.30,0008.54
2021-11-08 22:18:00,,0830.2,5.00,0.00,28.6,27.8,00.0,37.6,30.4,14.3,0002.6,0009.51,0017.68,0008.55
2021-11-08 22:19:00,,0830.3,5.01,0.00,28.6,27.8,00.0,37.6,30.4,14.3,0002.8,0009.50,0017.70,0008.54
2021-11-08 22:20:00,,0830.2,4.99,0.00,28.6,27.8,00.0,37.6,30.4,14.3,0002.3,0009.44,0018.25,0008.52
2021-11-08 22:21:00,,0830.2,5.00,0.00,28.6,27.8,00.0,37.6,30.3,14.3,0002.1,0009.45,0018.05,0008.51
2021-11-08 22:22:00,,0830.3,4.99,0.00,28.6,27.8,00.0,37.6,30.3,14.3,0002.0,0009.52,0018.30,0008.54
2021-11-08 22:23:00,,0830.3,4.99,0.00,28.6,27.8,00.0,37.6,30.3,14.3,0001.9,0009.59,0018.48,0008.56
2021-11-08 22:24:00,,0830.2,4.99,0.00,28.6,27.8,00.0,37.6,30.3,14.3,0001.6,0009.66,0018.02,0008.58
2021-11-08 22:25:00,,0830.2,5.00,0.00,28.6,27.8,00.0,37.6,30.3,14.3,0000.9,0009.71,0018.05,0008.61
2021-11-08 22:26:00,,0830.2,5.01,0.00,28.6,27.8,00.0,37.6,30.3,14.3,0000.7,0009.78,0018.15,0008.64
2021-11-08 22:27:00,,0830.2,5.00,0.00,28.6,27.7,00.0,37.6,30.3,14.3,0000.3,0009.78,0018.83,0008.66
2021-11-08 22:28:00,,0830.2,4.99,0.00,28.6,27.7,00.0,37.6,30.3,14.4,-000.1,0009.80,0018.08,0008.67
2021-11-08 22:29:00,,0830.3,5.00,0.00,28.6,27.7,00.0,37.6,30.3,14.4,0000.0,0009.86,0018.18,0008.68
2021-11-08 22:30:00,,0830.3,4.99,0.00,28.6,27.8,00.0,37.6,30.3,14.4,-000.2,0009.85,0018.20,0008.70
2021-11-08 22:31:00,,0830.3,5.01,0.00,28.6,27.8,00.0,37.6,30.3,14.4,-000.2,0009.87,0016.98,0008.73
2021-11-08 22:32:00,,0830.2,4.99,0.00,28.6,27.7,00.0,37.6,30.3,14.4,-000.1,0009.84,0017.94,0008.77
2021-11-08 22:33:00,,0830.3,5.00,0.00,28.6,27.7,00.0,37.6,30.3,14.4,-000.4,0009.82,0018.94,0008.76
2021-11-08 22:34:00,,0830.2,4.99,0.00,28.5,27.7,00.0,37.6,30.3,14.4,-000.6,0009.80,0018.74,0008.76
2021-11-08 22:35:00,,0830.3,5.01,0.00,28.5,27.7,00.0,37.6,30.2,14.5,-000.9,0009.81,0018.52,0008.77
2021-11-08 22:36:00,,0830.3,4.99,0.00,28.5,27.6,00.0,37.6,30.3,14.5,-000.9,0009.80,0018.14,0008.77
2021-11-08 22:37:00,,0830.3,4.98,0.00,28.5,27.6,00.0,37.6,30.3,14.5,-000.7,0009.78,0017.60,0008.77
2021-11-08 22:38:00,,0830.4,5.01,0.00,28.5,27.6,00.0,37.6,30.3,14.5,-000.4,0009.81,0016.77,0008.79
2021-11-08 22:39:00,,0830.3,4.99,0.00,28.5,27.6,00.0,37.6,30.3,14.5,-000.2,0009.81,0016.85,0008.82
2021-11-08 22:40:00,,0830.3,5.00,0.00,28.5,27.6,00.0,37.6,30.3,14.5,-000.1,0009.81,0017.22,0008.83
2021-11-08 22:41:00,,0830.3,4.99,0.00,28.5,27.7,00.0,37.6,30.3,14.5,0000.3,0009.82,0017.50,0008.83
2021-11-08 22:42:00,,0830.3,5.01,0.00,28.5,27.7,00.0,37.6,30.3,14.5,0000.7,0009.81,0017.67,0008.83
2021-11-08 22:43:00,,0830.3,5.00,0.00,28.5,27.7,00.0,37.6,30.3,14.5,0000.7,0009.84,0016.69,0008.82
2021-11-08 22:44:00,,0830.3,5.01,0.00,28.5,27.7,00.0,37.5,30.3,14.5,0000.6,0009.82,0015.64,0008.84
2021-11-08 22:45:00,,0830.5,5.00,0.00,28.5,27.7,00.0,37.5,30.3,14.6,0000.6,0009.87,0015.49,0008.86
2021-11-08 22:46:00,,0830.4,5.00,0.00,28.5,27.7,00.0,37.5,30.3,14.6,0000.7,0009.90,0015.75,0008.89
2021-11-08 22:47:00,,0830.4,5.00,0.00,28.5,27.7,00.0,37.5,30.2,14.6,0000.8,0009.99,0015.95,0008.92
2021-11-08 22:48:00,,0830.4,5.00,0.00,28.5,27.7,00.0,37.5,30.2,14.6,0000.7,0010.04,0016.27,0008.95
2021-11-08 22:49:00,,0830.4,5.01,0.00,28.5,27.7,00.0,37.5,30.2,14.6,0000.6,0010.03,0016.30,0008.97
2021-11-08 22:50:00,,0830.4,5.01,0.00,28.5,27.7,00.0,37.5,30.2,14.6,0000.7,0010.04,0016.39,0008.99
2021-11-08 22:51:00,,0830.5,5.00,0.00,28.4,27.6,00.0,37.5,30.2,14.6,0001.0,0010.04,0016.93,0009.02
2021-11-08 22:52:00,,0830.5,4.99,0.00,28.4,27.6,00.0,37.5,30.2,14.6,0000.2,0010.10,0016.62,0009.07
2021-11-08 22:53:00,,0830.4,5.00,0.00,28.4,27.6,00.0,37.5,30.2,14.6,-000.0,0010.19,0016.45,0009.12
2021-11-08 22:54:00,,0830.4,4.98,0.00,28.4,27.6,00.0,37.5,30.2,14.7,-000.1,0010.23,0016.32,0009.16
2021-11-08 22:55:00,,0830.4,5.00,0.00,28.4,27.6,00.0,37.5,30.2,14.7,0000.0,0010.28,0017.03,0009.20
2021-11-08 22:56:00,,0830.5,5.01,0.00,28.4,27.6,00.0,37.5,30.2,14.7,0000.1,0010.27,0017.48,0009.21
2021-11-08 22:57:00,,0830.5,5.00,0.00,28.4,27.6,00.0,37.5,30.2,14.7,0000.2,0010.27,0018.25,0009.20
2021-11-08 22:58:00,,0830.5,4.99,0.00,28.4,27.6,00.0,37.5,30.2,14.7,0000.3,0010.23,0018.60,0009.20
2021-11-08 22:59:00,,0830.5,5.01,0.00,28.4,27.6,00.0,37.5,30.2,14.7,0000.6,0010.22,0018.45,0009.21
